RYR385 LPPT-LPMA

Flight info

Callsign RYR385
Flight time N/A
Altitude 35000
Route ULVOT DCT GALPA DCT RAKUN
Aircraft B38M/M-SDE1FGHILORVWXY/HB1

Departure

Time 2026-04-29 13:36
Airport Lisbon Humberto Delgado Airport (LPPT)

Arrival

Time N/A
Airport Cristiano Ronaldo International Airport (LPMA)
Time Latitude Longitude Altitude Speed Heading
2026-04-29 13:08 38.76461 -9.13709 350 ft 0 kts 168°
2026-04-29 13:22 38.76469 -9.13711 350 ft 4 kts 152°
2026-04-29 13:22 38.76470 -9.13711 350 ft 4 kts 150°
2026-04-29 13:22 38.76481 -9.13732 358 ft 4 kts 123°
2026-04-29 13:23 38.76496 -9.13747 355 ft 4 kts 152°
2026-04-29 13:23 38.76519 -9.13765 356 ft 4 kts 140°
2026-04-29 13:23 38.76531 -9.13789 354 ft 3 kts 84°
2026-04-29 13:23 38.76530 -9.13794 355 ft 2 kts 78°
2026-04-29 13:29 38.76534 -9.13772 358 ft 7 kts 78°
2026-04-29 13:30 38.76550 -9.13683 354 ft 5 kts 61°
2026-04-29 13:30 38.76581 -9.13666 350 ft 6 kts
2026-04-29 13:30 38.76615 -9.13708 351 ft 8 kts 270°
2026-04-29 13:30 38.76635 -9.13766 351 ft 9 kts 320°
2026-04-29 13:31 38.76705 -9.13793 351 ft 13 kts 347°
2026-04-29 13:31 38.76808 -9.13823 354 ft 17 kts 348°
2026-04-29 13:31 38.76921 -9.13852 351 ft 17 kts 347°
2026-04-29 13:31 38.77035 -9.13884 355 ft 17 kts 348°
2026-04-29 13:32 38.77144 -9.13891 359 ft 15 kts 17°
2026-04-29 13:32 38.77243 -9.13839 364 ft 16 kts 22°
2026-04-29 13:32 38.77351 -9.13781 361 ft 17 kts 22°
2026-04-29 13:32 38.77462 -9.13721 363 ft 17 kts 23°
2026-04-29 13:33 38.77576 -9.13661 361 ft 19 kts 22°
2026-04-29 13:33 38.77706 -9.13591 359 ft 22 kts 22°
2026-04-29 13:33 38.77850 -9.13514 361 ft 23 kts 23°
2026-04-29 13:33 38.78001 -9.13433 365 ft 24 kts 23°
2026-04-29 13:34 38.78138 -9.13360 360 ft 18 kts 23°
2026-04-29 13:34 38.78255 -9.13298 362 ft 19 kts 22°
2026-04-29 13:34 38.78377 -9.13235 364 ft 18 kts 21°
2026-04-29 13:34 38.78500 -9.13240 363 ft 18 kts 333°
2026-04-29 13:35 38.78530 -9.13361 367 ft 14 kts 234°
2026-04-29 13:35 38.78449 -9.13422 370 ft 13 kts 202°
2026-04-29 13:35 38.78351 -9.13475 369 ft 27 kts 203°
2026-04-29 13:35 38.77917 -9.13705 369 ft 108 kts 202°
2026-04-29 13:36 38.77018 -9.14181 582 ft 156 kts 204°
2026-04-29 13:36 38.75994 -9.14678 1655 ft 157 kts 204°
2026-04-29 13:36 38.74984 -9.15227 2639 ft 159 kts 205°
2026-04-29 13:36 38.73953 -9.15794 3372 ft 170 kts 206°
2026-04-29 13:37 38.72815 -9.16413 4042 ft 185 kts 205°
2026-04-29 13:37 38.71574 -9.17083 4686 ft 205 kts 205°
2026-04-29 13:37 38.70187 -9.17828 5317 ft 227 kts 206°
2026-04-29 13:37 38.68654 -9.18651 5966 ft 249 kts 205°
2026-04-29 13:38 38.66992 -9.19537 6616 ft 268 kts 205°
2026-04-29 13:38 38.65266 -9.20456 7684 ft 267 kts 205°
2026-04-29 13:38 38.63516 -9.21309 8711 ft 274 kts 199°
2026-04-29 13:38 38.61649 -9.21954 9643 ft 280 kts 199°
2026-04-29 13:39 38.59743 -9.22624 10466 ft 289 kts 199°
2026-04-29 13:39 38.57750 -9.23337 11044 ft 305 kts 199°
2026-04-29 13:39 38.55686 -9.24179 11628 ft 317 kts 207°
2026-04-29 13:39 38.53681 -9.25443 12315 ft 325 kts 209°
2026-04-29 13:40 38.51646 -9.26731 13284 ft 326 kts 210°
2026-04-29 13:40 38.49620 -9.28011 14048 ft 333 kts 210°
2026-04-29 13:40 38.47536 -9.29327 14814 ft 335 kts 210°
2026-04-29 13:40 38.45437 -9.30650 15568 ft 338 kts 210°
2026-04-29 13:41 38.43310 -9.31990 16297 ft 342 kts 210°
2026-04-29 13:41 38.41168 -9.33339 17033 ft 345 kts 210°
2026-04-29 13:41 38.38999 -9.34704 17746 ft 349 kts 210°
2026-04-29 13:41 38.36805 -9.36083 18394 ft 352 kts 211°
2026-04-29 13:42 38.34601 -9.37468 19010 ft 354 kts 211°
2026-04-29 13:42 38.32383 -9.38861 19653 ft 356 kts 212°
2026-04-29 13:42 38.30156 -9.40259 20252 ft 358 kts 212°
2026-04-29 13:42 38.27944 -9.41646 20851 ft 360 kts 212°
2026-04-29 13:43 38.25690 -9.43058 21470 ft 362 kts 213°
2026-04-29 13:43 38.23425 -9.44477 22058 ft 363 kts 213°
2026-04-29 13:43 38.21153 -9.45898 22662 ft 365 kts 213°
2026-04-29 13:43 38.18869 -9.47327 23260 ft 367 kts 213°
2026-04-29 13:44 38.16572 -9.48761 23773 ft 368 kts 214°
2026-04-29 13:44 38.14263 -9.50202 24243 ft 370 kts 214°
2026-04-29 13:44 38.11948 -9.51647 24695 ft 372 kts 214°
2026-04-29 13:44 38.09618 -9.53099 25132 ft 374 kts 214°
2026-04-29 13:45 38.07275 -9.54559 25601 ft 375 kts 214°
2026-04-29 13:45 38.04924 -9.56023 26035 ft 377 kts 214°
2026-04-29 13:45 38.02553 -9.57498 26453 ft 380 kts 214°
2026-04-29 13:45 38.00209 -9.59031 26867 ft 376 kts 220°
2026-04-29 13:46 37.98186 -9.61087 27229 ft 373 kts 226°
2026-04-29 13:46 37.96175 -9.63206 27560 ft 377 kts 226°
2026-04-29 13:46 37.94183 -9.65312 27953 ft 379 kts 226°
2026-04-29 13:46 37.92156 -9.67466 28324 ft 382 kts 226°
2026-04-29 13:47 37.90114 -9.69639 28702 ft 384 kts 226°
2026-04-29 13:47 37.88062 -9.71824 29059 ft 387 kts 226°
2026-04-29 13:47 37.85995 -9.74023 29406 ft 389 kts 226°
2026-04-29 13:47 37.83914 -9.76236 29754 ft 392 kts 226°
2026-04-29 13:48 37.81819 -9.78461 30077 ft 394 kts 226°
2026-04-29 13:48 37.79712 -9.80699 30362 ft 397 kts 226°
2026-04-29 13:48 37.77591 -9.82949 30647 ft 399 kts 226°
2026-04-29 13:48 37.75457 -9.85211 30940 ft 401 kts 226°
2026-04-29 13:49 37.73335 -9.87459 31207 ft 404 kts 226°
2026-04-29 13:49 37.71174 -9.89747 31490 ft 406 kts 225°
2026-04-29 13:49 37.69008 -9.92037 31770 ft 408 kts 225°
2026-04-29 13:49 37.66833 -9.94337 32151 ft 407 kts 225°
2026-04-29 13:50 37.64659 -9.96633 32532 ft 407 kts 225°
2026-04-29 13:50 37.62526 -9.98964 32880 ft 403 kts 231°
2026-04-29 13:50 37.60767 -10.01669 33261 ft 398 kts 236°
2026-04-29 13:50 37.59022 -10.04389 33575 ft 399 kts 236°
2026-04-29 13:51 37.57275 -10.07121 33906 ft 399 kts 236°
2026-04-29 13:51 37.55537 -10.09848 34212 ft 399 kts 236°
2026-04-29 13:51 37.53802 -10.12574 34493 ft 399 kts 236°
2026-04-29 13:51 37.52062 -10.15307 34750 ft 400 kts 236°
2026-04-29 13:52 37.50319 -10.18042 34892 ft 400 kts 236°
2026-04-29 13:52 37.48574 -10.20779 34898 ft 399 kts 236°
2026-04-29 13:52 37.45117 -10.26194 34908 ft 399 kts 236°
2026-04-29 13:53 37.41628 -10.31651 34908 ft 400 kts 236°
2026-04-29 13:53 37.38140 -10.37096 34908 ft 400 kts 235°
2026-04-29 13:54 37.34640 -10.42552 34910 ft 401 kts 235°
2026-04-29 13:54 37.31130 -10.48014 34914 ft 401 kts 235°
2026-04-29 13:55 37.27621 -10.53465 34915 ft 401 kts 235°
2026-04-29 13:55 37.24129 -10.58882 34913 ft 402 kts 235°
2026-04-29 13:56 37.20608 -10.64334 34910 ft 402 kts 235°
2026-04-29 13:56 37.17075 -10.69796 34916 ft 402 kts 235°
2026-04-29 13:57 37.13547 -10.75241 34922 ft 403 kts 235°
2026-04-29 13:57 37.10609 -10.79769 34915 ft 403 kts 235°
2026-04-29 13:58 37.06468 -10.86140 34918 ft 403 kts 235°
2026-04-29 13:58 37.02922 -10.91587 34914 ft 403 kts 235°
2026-04-29 13:59 36.99373 -10.97028 34921 ft 404 kts 235°
2026-04-29 13:59 36.95819 -11.02470 34925 ft 404 kts 235°
2026-04-29 14:00 36.92286 -11.07869 34925 ft 404 kts 235°
2026-04-29 14:00 36.88724 -11.13303 34921 ft 404 kts 235°
2026-04-29 14:01 36.85153 -11.18745 34924 ft 404 kts 235°
2026-04-29 14:01 36.81578 -11.24181 34925 ft 404 kts 235°
2026-04-29 14:02 36.78007 -11.29604 34925 ft 404 kts 235°
2026-04-29 14:02 36.74455 -11.34989 34927 ft 404 kts 235°
2026-04-29 14:03 36.70875 -11.40406 34928 ft 405 kts 234°
2026-04-29 14:03 36.67292 -11.45820 34930 ft 405 kts 234°
2026-04-29 14:04 36.64308 -11.50323 34933 ft 405 kts 234°
2026-04-29 14:04 36.60717 -11.55733 34932 ft 405 kts 234°
2026-04-29 14:05 36.57118 -11.61148 34933 ft 406 kts 234°
2026-04-29 14:05 36.53518 -11.66555 34932 ft 406 kts 234°
2026-04-29 14:06 36.49912 -11.71961 34932 ft 406 kts 234°
2026-04-29 14:06 36.46328 -11.77326 34935 ft 406 kts 234°
2026-04-29 14:07 36.42714 -11.82727 34936 ft 406 kts 234°
2026-04-29 14:07 36.39092 -11.88132 34937 ft 407 kts 234°
2026-04-29 14:08 36.35466 -11.93534 34936 ft 407 kts 234°
2026-04-29 14:08 36.31842 -11.98924 34940 ft 407 kts 234°
2026-04-29 14:09 36.28236 -12.04279 34939 ft 407 kts 234°
2026-04-29 14:09 36.24603 -12.09666 34939 ft 407 kts 234°
2026-04-29 14:10 36.20955 -12.15067 34942 ft 408 kts 233°
2026-04-29 14:10 36.17311 -12.20452 34943 ft 408 kts 233°
2026-04-29 14:11 36.13665 -12.25833 34946 ft 408 kts 233°
2026-04-29 14:11 36.10016 -12.31208 34947 ft 408 kts 233°
2026-04-29 14:12 36.06360 -12.36585 34948 ft 409 kts 233°
2026-04-29 14:12 36.02700 -12.41961 34948 ft 409 kts 233°
2026-04-29 14:13 35.99054 -12.47306 34949 ft 409 kts 233°
2026-04-29 14:13 35.95385 -12.52678 34948 ft 409 kts 233°